Home   Weather   Whistler   Past weeks

Flag for Canada Past Weather in Whistler, British Columbia, Canada — Yesterday and Last 2 Weeks

Now
38 °F

Chilly.


Feels Like: 38 °F
Forecast: 27 / 36 °F
Wind: 2 mph from North

Location: Squamish Airport

Current Time: Feb 21, 2017 at 1:41:34 am

Latest Report: Feb 21, 2017 at 1:00 am


Visibility: N/A

Pressure: 29.76 "Hg (27.38 "Hg at 674m altitude)

Humidity: 97%

Dew Point: 37 °F

Location of WhistlerLocation

Past Weather in Whistler — Graph

°F

Whistler Temperature Yesterday

Maximum temperature yesterday: 49 °F (at 1:00 pm)
Minimum temperature yesterday: 33 °F (at 8:00 am)
Average temperature yesterday: 40 °F

High & Low Weather Summary for the Past Weeks

 TemperatureHumidityPressure
High54 °F (Feb 13, 3:00 pm)100% (Feb 8, 11:00 pm)30.54 "Hg (Feb 8, 11:00 pm)
Low18 °F (Feb 8, 4:00 am)34% (Feb 6, 12:00 pm)29.18 "Hg (Feb 9, 3:00 pm)
Average36 °F83%29.78 "Hg
* Reported Feb 6 12:00 am — Feb 21 12:00 am, Whistler, Weather by CustomWeather, © 2017

Note: Actual official high and low records may vary slightly from our data, if they occured in-between our weather recording intervals... More about our weather records

Advertising

Whistler Weather History for the Previous 24 Hours

Scroll right to see more
 ConditionsComfort  
Time TempWeatherWind HumidityBarometerVisibility
12:00 am
Tue, Feb 21
37 °FChilly.1 mph96%29.75 "HgN/A
11:00 pm
Mon, Feb 20
38 °FChilly.1 mph96%29.72 "HgN/A
10:00 pm38 °FChilly.No wind97%29.71 "HgN/A
9:00 pm38 °FChilly.1 mph97%29.70 "HgN/A
8:00 pm38 °FChilly.No wind96%29.69 "HgN/A
7:00 pm37 °FChilly.No wind95%29.68 "HgN/A
6:00 pm40 °FQuite cool.1 mph89%29.65 "HgN/A
5:00 pm45 °FCool.2 mph75%29.63 "HgN/A
4:00 pm47 °FCool.2 mph69%29.60 "HgN/A
3:00 pm48 °FCool.2 mph62%29.58 "HgN/A
2:00 pm48 °FCool.3 mph67%29.55 "HgN/A
1:00 pm49 °FCool.3 mph67%29.54 "HgN/A
12:00 pm47 °FCool.5 mph70%29.54 "HgN/A
11:00 am44 °FQuite cool.5 mph82%29.56 "HgN/A
10:00 am39 °FChilly.3 mph97%29.57 "HgN/A
9:00 am36 °FChilly.1 mph98%29.56 "HgN/A
8:00 am33 °FChilly.No wind99%29.56 "HgN/A
7:00 am36 °FChilly.2 mph98%29.55 "HgN/A
6:00 am35 °FChilly.2 mph98%29.55 "HgN/A
5:00 am35 °FChilly.1 mph98%29.56 "HgN/A
4:00 am35 °FChilly.No wind98%29.56 "HgN/A
3:00 am36 °FChilly.1 mph98%29.57 "HgN/A
2:00 am37 °FChilly.1 mph97%29.57 "HgN/A
1:00 am37 °FChilly.1 mph90%29.56 "HgN/A
Weather by CustomWeather, © 2017

See weather overviewHow to use our weather pages